| time (UTC) | temp F | wind direction | speed knots | gust knots | rain 1hr in | rain 24hr in | rain mn in | humidity % | barometer mb |
| 20260504050018 | 36 | 171 | 0.0 | 0.0 | 0.00 | 0.00 | 0.00 | 84 | 1013.4 |
| 20260504044515 | 37 | 171 | 0.0 | 1.7 | 0.00 | 0.00 | 0.00 | 83 | 1013.5 |
| 20260504043013 | 38 | 171 | 0.0 | 0.9 | 0.00 | 0.00 | 0.00 | 83 | 1013.4 |
| 20260504041511 | 38 | 171 | 0.0 | 2.6 | 0.00 | 0.00 | 0.00 | 83 | 1013.5 |
| 20260504040010 | 39 | 277 | 0.0 | 0.0 | 0.00 | 0.00 | 0.00 | 82 | 1013.3 |
| 20260504034515 | 39 | 277 | 0.0 | 2.6 | 0.00 | 0.00 | 0.00 | 81 | 1013.2 |
| 20260504033018 | 40 | 277 | 0.0 | 1.7 | 0.00 | 0.00 | 0.00 | 81 | 1013.4 |
| 20260504031508 | 40 | 277 | 0.0 | 0.9 | 0.00 | 0.00 | 0.00 | 80 | 1013.4 |
| 20260504030005 | 41 | 277 | 0.0 | 0.0 | 0.00 | 0.00 | 0.00 | 80 | 1013.3 |
| 20260504024518 | 42 | 277 | 0.0 | 0.0 | 0.00 | 0.00 | 0.00 | 79 | 1013.1 |
| 20260504023004 | 42 | 277 | 0.0 | 0.0 | 0.00 | 0.00 | 0.00 | 77 | 1013.0 |
| 20260504021505 | 43 | 277 | 0.0 | 0.9 | 0.00 | 0.00 | 0.00 | 76 | 1012.9 |
| 20260504020004 | 44 | 277 | 0.0 | 0.0 | 0.00 | 0.00 | 0.00 | 75 | 1012.9 |
| 20260504014503 | 45 | 277 | 0.0 | 0.0 | 0.00 | 0.00 | 0.00 | 72 | 1012.7 |
| 20260504013002 | 46 | 277 | 0.0 | 0.0 | 0.00 | 0.00 | 0.00 | 70 | 1012.6 |
| 20260504011502 | 46 | 277 | 0.0 | 0.9 | 0.00 | 0.00 | 0.00 | 67 | 1012.4 |
| 20260504010001 | 48 | 277 | 0.0 | 0.9 | 0.00 | 0.00 | 0.00 | 67 | 1012.5 |
| 20260504004503 | 49 | 277 | 0.0 | 0.0 | 0.00 | 0.00 | 0.00 | 62 | 1012.4 |
| 20260504003102 | 50 | 277 | 0.0 | 1.7 | 0.00 | 0.00 | 0.00 | 59 | 1012.3 |
| 20260504001607 | 52 | 277 | 0.9 | 2.6 | 0.00 | 0.00 | 0.00 | 56 | 1012.2 |
| 20260503234559 | 56 | 233 | 0.9 | 6.1 | 0.00 | 0.00 | 0.00 | 47 | 1012.1 |
| 20260503233058 | 58 | 272 | 3.5 | 9.6 | 0.00 | 0.00 | 0.00 | 40 | 1011.9 |
| 20260503231559 | 59 | 316 | 3.5 | 8.7 | 0.00 | 0.00 | 0.00 | 42 | 1011.8 |
| 20260503230059 | 60 | 279 | 1.7 | 7.0 | 0.00 | 0.00 | 0.00 | 38 | 1011.7 |
| 20260503224556 | 61 | 295 | 2.6 | 11.3 | 0.00 | 0.00 | 0.00 | 37 | 1011.5 |
| 20260503223059 | 62 | 285 | 2.6 | 8.7 | 0.00 | 0.00 | 0.00 | 36 | 1011.8 |
| 20260503221556 | 63 | 269 | 3.5 | 10.4 | 0.00 | 0.00 | 0.00 | 35 | 1011.8 |
| 20260503220059 | 63 | 248 | 3.5 | 8.7 | 0.00 | 0.00 | 0.00 | 36 | 1011.9 |
| 20260503214552 | 63 | 258 | 4.3 | 8.7 | 0.00 | 0.00 | 0.00 | 35 | 1012.0 |
| 20260503213053 | 63 | 279 | 4.3 | 14.8 | 0.00 | 0.00 | 0.00 | 35 | 1012.0 |
| 20260503211555 | 61 | 227 | 6.1 | 12.2 | 0.00 | 0.00 | 0.00 | 36 | 1011.9 |
| 20260503210048 | 63 | 279 | 5.2 | 12.2 | 0.00 | 0.00 | 0.00 | 38 | 1011.9 |
| 20260503204548 | 62 | 309 | 4.3 | 11.3 | 0.00 | 0.00 | 0.00 | 40 | 1011.9 |
| 20260503203044 | 60 | 288 | 3.5 | 8.7 | 0.00 | 0.00 | 0.00 | 38 | 1012.0 |
| 20260503201543 | 62 | 288 | 5.2 | 15.6 | 0.00 | 0.00 | 0.00 | 36 | 1012.2 |
| 20260503200042 | 62 | 290 | 7.8 | 16.5 | 0.00 | 0.00 | 0.00 | 38 | 1012.3 |
| 20260503194545 | 62 | 299 | 6.1 | 11.3 | 0.00 | 0.00 | 0.00 | 39 | 1012.5 |
| 20260503193043 | 62 | 289 | 7.0 | 11.3 | 0.00 | 0.00 | 0.00 | 37 | 1012.5 |
| 20260503191540 | 62 | 248 | 6.1 | 15.6 | 0.00 | 0.00 | 0.00 | 38 | 1012.9 |
| 20260503190043 | 60 | 311 | 4.3 | 14.8 | 0.00 | 0.00 | 0.00 | 40 | 1012.9 |
| 20260503184547 | 60 | 241 | 5.2 | 13.0 | 0.00 | 0.00 | 0.00 | 37 | 1013.1 |
| 20260503183036 | 61 | 351 | 5.2 | 13.0 | 0.00 | 0.00 | 0.00 | 38 | 1013.3 |
| 20260503181536 | 60 | 263 | 7.8 | 12.2 | 0.00 | 0.00 | 0.00 | 39 | 1013.2 |
| 20260503180030 | 59 | 284 | 3.5 | 16.5 | 0.00 | 0.00 | 0.00 | 39 | 1013.5 |
| 20260503174535 | 58 | 228 | 6.1 | 12.2 | 0.00 | 0.00 | 0.00 | 39 | 1013.7 |
| 20260503173026 | 58 | 300 | 7.0 | 13.9 | 0.00 | 0.00 | 0.00 | 46 | 1013.7 |
| 20260503171523 | 57 | 281 | 9.6 | 15.6 | 0.00 | 0.00 | 0.00 | 44 | 1014.0 |
| 20260503081501 | 35 | 261 | 0.9 | 3.5 | 0.00 | 0.00 | 0.00 | 83 | 1013.2 |